Location: Caltech
(34.1382°N, 118.1253°W)
Time: 09:02:58
(UTC-07:00)

ITAMSAT 1 - Visible Passes

Search period start: 24 March 2017 00:00
Search period end: 03 April 2017 00:00
Orbit: 785 x 796 km, 98.8° (Epoch: 22 March)

Date Brightness Start Highest point End Pass type
(mag) Time Alt. Az. Time Alt. Az. Time Alt. Az.
24 Mar 8.6 04:08:26 10° NNE 04:11:52 42° NNE 04:11:52 42° NNE visible
24 Mar 9.6 05:50:57 10° NW 05:52:23 11° WNW 05:52:37 11° WNW visible
25 Mar 9.5 03:39:25 10° NNE 03:42:18 28° NE 03:42:18 28° NE visible
25 Mar 9.0 05:19:31 10° NNW 05:23:02 22° WNW 05:23:02 22° WNW visible
26 Mar 10.2 03:11:03 10° NE 03:12:43 16° ENE 03:12:43 16° ENE visible
26 Mar 8.3 04:49:26 10° N 04:53:28 38° NW 04:53:28 38° NW visible
27 Mar 8.1 04:19:51 10° N 04:23:54 55° N 04:23:54 55° N visible
28 Mar 8.8 03:50:40 10° NNE 03:54:20 39° NE 03:54:20 39° NE visible
28 Mar 9.2 05:31:27 10° NNW 05:34:43 17° WNW 05:35:04 17° WNW visible
29 Mar 9.8 03:21:59 10° NE 03:24:45 22° ENE 03:24:45 22° ENE visible
29 Mar 8.4 05:01:05 10° N 05:05:29 32° WNW 05:05:29 32° WNW visible
30 Mar 10.5 02:54:37 10° ENE 02:55:10 11° ENE 02:55:10 11° ENE visible
30 Mar 7.8 04:31:19 10° N 04:35:55 59° NW 04:35:55 59° NW visible
31 Mar 8.2 04:01:58 10° NNE 04:06:20 56° ENE 04:06:20 56° ENE visible
31 Mar 9.4 05:43:38 10° NW 05:45:59 13° WNW 05:47:05 12° WNW visible
01 Apr 9.3 03:33:05 10° NE 03:36:46 30° ENE 03:36:46 30° ENE visible
01 Apr 8.7 05:12:47 10° NNW 05:16:58 25° WNW 05:17:30 25° WNW visible
02 Apr 10.2 03:05:00 10° NE 03:07:11 15° E 03:07:11 15° E visible
02 Apr 7.8 04:42:50 10° N 04:47:50 49° WNW 04:47:55 49° WNW visible
